Volver al catálogo

STARLINK-31369

ActivoComunicacionesVLEO
NORAD 58975·PAYLOAD·🇺🇸 United States

Lanzado Feb 15, 2024 desde Vandenberg Space Force Base

Loading…

Próximos Pases (próximas 24 horas)

TLE

ActualizadoSource: CelesTrak SupGP

Época: Sep 15, 2026, 03:25 UTC

1 58975C 24031L   26258.14284722  .00042297  00000+0  12497-2 0  2583
2 58975  53.1557 134.4118 0001267  80.9713 207.6465 15.34368142    16

Sigue STARLINK-31369 en tiempo real con AllMySat

Download on the App Store